Tracking 18942 objects as of 16-Jan-2018
HD Live streaming from Space Station
objects crossing your sky now

FENGYUN 1C DEB

Track FENGYUN 1C DEB now!
10-day predictions


NORAD ID: 31739
Int'l Code: 1999-025CEN
Perigee: 745.4 km
Apogee: 932.9 km
Inclination: 99.0 °
Period: 101.5 minutes
Semi major axis: 7210 km
RCS: 0.0135 m2 (small)
Launch date: May 10, 1999
Source: People's Republic of China (PRC)
Launch site: Taiyaun Space Center, China (TSC)

Note: This is SATELLITE DEBRIS
aabbcc
Your satellite tracking list
Your tracking list is empty




NASA's NSSDC Master Catalog

Two Line Element Set (TLE):
1 31739U 99025CEN 18015.78877521 +.00000021 +00000-0 +29968-4 0  9999
2 31739 099.0289 014.3191 0130045 043.6221 080.2057 14.18034058545473
Source of the keplerian elements: AFSPC